Simultaneous Nadir Overpasses (SNOs) Predictions

Prediction of SNOs between METOP-B and NOAA-19 Satellite Orbit:

Table of predicted SNOs for the next 14.0 days since TLE Epoch: 10/23/2021
Index Date (METOP-B) Time (METOP-B) Lat,Lon (METOP-B) SZA (METOP-B ) Date (NOAA-19) Time (NOAA-19) Lat,Lon (NOAA-19) SZA (NOAA-19 ) Distance(km) Time Diff (sec)
1 10/23/2021 03:26:05 80.65, 158.79 93.64 10/23/2021 03:27:14 80.65, 158.97 93.69 3.15 69
2 11/03/2021 01:16:46 80.67,-168.48 97.33 11/03/2021 01:15:42 80.68,-168.56 97.30 1.43 64
3 11/03/2021 02:07:27 -80.69, -0.95 82.64 11/03/2021 02:06:40 -80.67, -1.07 82.68 2.75 47
4 11/03/2021 02:58:08 80.67, 166.04 97.33 11/03/2021 02:57:42 80.68, 166.01 97.33 1.31 26
5 11/03/2021 03:48:49 -80.68, -26.43 82.64 11/03/2021 03:48:40 -80.67, -26.49 82.65 1.53 9
6 11/03/2021 04:39:29 80.68, 140.90 97.38 11/03/2021 04:39:41 80.66, 140.94 97.37 1.98 12
7 11/03/2021 05:30:11 -80.67, -51.91 82.64 11/03/2021 05:30:40 -80.67, -51.91 82.63 0.43 29
8 11/03/2021 06:20:51 80.67, 115.42 97.38 11/03/2021 06:21:41 80.66, 115.51 97.40 2.02 50



Historial Predications of SNOs between METOP-B and NOAA-19
